Weather History for Perry, FL

Change the Weather History Date:

Thursday, September 19, 2013

  Actual Average (KCTY) Record (KCTY)
Temperature  
Mean Temperature 78 °F 78 °F  
Max Temperature 91 °F 88 °F 93 °F (2005)
Min Temperature 66 °F 68 °F 60 °F (2003)
Degree Days  
Heating Degree Days 0 0  
Month to date heating degree days 0  
Since 1 July heating degree days 0  
Cooling Degree Days 14 13  
Month to date cooling degree days 273  
Year to date cooling degree days 2211  
Growing Degree Days 28 (Base 50)    
Moisture  
Dew Point 66 °F    
Average Humidity 69    
Maximum Humidity 94    
Minimum Humidity 42    
Precipitation  
Precipitation 0.00 in 0.13 in 2.01 in (2011)
Month to date precipitation 3.22  
Year to date precipitation 38.59  
Sea Level Pressure  
Sea Level Pressure 30.06 in    
Wind  
Wind Speed 3 mph (ENE)    
Max Wind Speed 10 mph    
Max Gust Speed -    
Visibility 10 miles    
Events      
T = Trace of Precipitation, MM = Missing Value Source: NWS Daily Summary

Daily Weather History Graph

Daily Weather History Graph

Search for Another Location

Airport:

Trip Planner

Search our weather history database for the weather conditions in past years. The results will help you decide how hot, cold, wet, or windy it might be!

Date:

Astronomy

Sep. 19, 2013 Rise Set
Actual Time 7:21 AM EDT 7:34 PM EDT
Civil Twilight 6:57 AM EDT 7:58 PM EDT
Nautical Twilight 6:29 AM EDT 8:26 PM EDT
Astronomical Twilight 6:01 AM EDT 8:54 PM EDT
Moon 7:37 PM EDT (9/19) 7:25 AM EDT (9/19)
Length of Visible Light 13h 01m
Length of Day
12h 13m
Full, 100% of the Moon is Illuminated
Sep 19
Full
Sep 26
Last Quarter
Oct 4
New
Oct 11
First Quarter
Oct 18
Full

Hourly Weather History & Observations

Time (EDT) Temp. Heat Index Dew Point Humidity Pressure Visibility Wind Dir Wind Speed Gust Speed Precip Events Conditions
12:15 AM 71.6 °F - 64.4 °F 78% 30.11 in 10.0 mi Calm Calm - N/A   Overcast
12:35 AM 71.6 °F - 64.4 °F 78% 30.11 in 10.0 mi NE 3.5 mph - N/A   Mostly Cloudy
12:53 AM 72.0 °F - 64.0 °F 76% 30.09 in - Calm Calm - N/A   Unknown
12:55 AM 69.8 °F - 64.4 °F 83% 30.10 in 10.0 mi Calm Calm - N/A   Scattered Clouds
1:15 AM 69.8 °F - 62.6 °F 78% 30.10 in 10.0 mi Calm Calm - N/A   Clear
1:35 AM 69.8 °F - 62.6 °F 78% 30.09 in 10.0 mi NE 3.5 mph - N/A   Clear
1:53 AM 71.1 °F - 64.0 °F 78% 30.07 in - NE 3.5 mph - N/A   Unknown
1:55 AM 68.0 °F - 62.6 °F 83% 30.08 in 10.0 mi NE 3.5 mph - N/A   Clear
2:15 AM 68.0 °F - 62.6 °F 83% 30.08 in 10.0 mi Calm Calm - N/A   Clear
2:35 AM 68.0 °F - 62.6 °F 83% 30.07 in 10.0 mi Calm Calm - N/A   Clear
2:53 AM 70.0 °F - 64.0 °F 81% 30.06 in - Calm Calm - N/A   Unknown
2:55 AM 68.0 °F - 62.6 °F 83% 30.07 in 10.0 mi NE 3.5 mph - N/A   Clear
3:15 AM 68.0 °F - 62.6 °F 83% 30.06 in 10.0 mi NE 3.5 mph - N/A   Clear
3:35 AM 68.0 °F - 62.6 °F 83% 30.06 in 10.0 mi NE 3.5 mph - N/A   Clear
3:53 AM 69.1 °F - 64.0 °F 84% 30.04 in - NE 3.5 mph - N/A   Unknown
3:55 AM 68.0 °F - 62.6 °F 83% 30.05 in 10.0 mi NE 3.5 mph - N/A   Clear
4:15 AM 68.0 °F - 62.6 °F 83% 30.05 in 10.0 mi NE 4.6 mph - N/A   Clear
4:35 AM 68.0 °F - 64.4 °F 88% 30.05 in 10.0 mi NE 3.5 mph - N/A   Clear
4:53 AM 69.1 °F - 64.0 °F 84% 30.04 in - Calm Calm - N/A   Unknown
4:55 AM 68.0 °F - 64.4 °F 88% 30.05 in 10.0 mi ENE 3.5 mph - N/A   Clear
5:15 AM 68.0 °F - 64.4 °F 88% 30.05 in 10.0 mi Calm Calm - N/A   Clear
5:35 AM 68.0 °F - 64.4 °F 88% 30.05 in 10.0 mi Calm Calm - N/A   Clear
5:53 AM 69.1 °F - 64.9 °F 87% 30.04 in - Calm Calm - N/A   Unknown
5:55 AM 68.0 °F - 64.4 °F 88% 30.06 in 10.0 mi Calm Calm - N/A   Clear
6:15 AM 66.2 °F - 64.4 °F 94% 30.06 in 10.0 mi Calm Calm - N/A   Clear
6:35 AM 68.0 °F - 64.4 °F 88% 30.06 in 10.0 mi NE 4.6 mph - N/A   Clear
6:53 AM 69.1 °F - 64.9 °F 87% 30.05 in - NE 4.6 mph - N/A   Unknown
6:55 AM 68.0 °F - 64.4 °F 88% 30.07 in 10.0 mi NE 3.5 mph - N/A   Clear
7:15 AM 68.0 °F - 64.4 °F 88% 30.07 in 10.0 mi NE 3.5 mph - N/A   Clear
7:35 AM 68.0 °F - 64.4 °F 88% 30.08 in 10.0 mi NNE 3.5 mph - N/A   Clear
7:53 AM 70.0 °F - 64.9 °F 84% 30.06 in - NE 4.6 mph - N/A   Unknown
7:55 AM 68.0 °F - 64.4 °F 88% 30.07 in 10.0 mi NE 5.8 mph - N/A   Clear
8:15 AM 68.0 °F - 64.4 °F 88% 30.08 in 10.0 mi NE 5.8 mph - N/A   Clear
8:35 AM 69.8 °F - 64.4 °F 83% 30.08 in 10.0 mi NE 5.8 mph - N/A   Clear
8:53 AM 73.0 °F - 64.9 °F 76% 30.08 in - NE 8.1 mph - N/A   Unknown
8:55 AM 69.8 °F - 64.4 °F 83% 30.09 in 10.0 mi ENE 8.1 mph - N/A   Clear
9:15 AM 71.6 °F - 64.4 °F 78% 30.09 in 10.0 mi NE 8.1 mph - N/A   Clear
9:35 AM 73.4 °F - 66.2 °F 78% 30.10 in 10.0 mi NE 6.9 mph - N/A   Clear
9:53 AM 77.0 °F - 66.9 °F 71% 30.09 in - NE 5.8 mph - N/A   Unknown
9:55 AM 73.4 °F - 66.2 °F 78% 30.10 in 10.0 mi ENE 3.5 mph - N/A   Clear
10:15 AM 77.0 °F - 68.0 °F 74% 30.10 in 10.0 mi ENE 6.9 mph - N/A   Clear
10:35 AM 78.8 °F - 68.0 °F 69% 30.11 in 10.0 mi East 4.6 mph - N/A   Clear
10:53 AM 82.0 °F 85.5 °F 69.1 °F 65% 30.10 in - Variable 5.8 mph - N/A   Unknown
10:55 AM 78.8 °F - 68.0 °F 69% 30.11 in 10.0 mi ENE 6.9 mph - N/A   Clear
11:15 AM 80.6 °F 83.2 °F 68.0 °F 65% 30.12 in 10.0 mi ENE 8.1 mph - N/A   Clear
11:35 AM 80.6 °F 83.2 °F 68.0 °F 65% 30.12 in 10.0 mi ESE 8.1 mph - N/A   Scattered Clouds
11:53 AM 84.0 °F 87.0 °F 68.0 °F 58% 30.10 in - Variable 4.6 mph - N/A   Unknown
11:55 AM 82.4 °F 85.4 °F 68.0 °F 62% 30.11 in 10.0 mi East 5.8 mph - N/A   Scattered Clouds
12:15 PM 82.4 °F 85.4 °F 68.0 °F 62% 30.11 in 10.0 mi NE 5.8 mph - N/A   Scattered Clouds
12:35 PM 84.2 °F 87.3 °F 68.0 °F 58% 30.10 in 10.0 mi ENE 8.1 mph - N/A   Scattered Clouds
12:53 PM 88.0 °F 90.7 °F 66.9 °F 49% 30.09 in - NE 5.8 mph - N/A   Unknown
12:55 PM 84.2 °F 85.6 °F 64.4 °F 51% 30.10 in 10.0 mi NE 3.5 mph - N/A   Scattered Clouds
1:15 PM 86.0 °F 87.3 °F 64.4 °F 48% 30.09 in 10.0 mi NE 8.1 mph - N/A   Clear
1:35 PM 86.0 °F 87.3 °F 64.4 °F 48% 30.08 in 10.0 mi ENE 3.5 mph - N/A   Scattered Clouds
1:53 PM 89.1 °F 92.1 °F 66.9 °F 48% 30.06 in - Variable 4.6 mph - N/A   Unknown
1:55 PM 86.0 °F 87.3 °F 64.4 °F 48% 30.07 in 10.0 mi NE 5.8 mph - N/A   Scattered Clouds
2:15 PM 86.0 °F 87.3 °F 64.4 °F 48% 30.06 in 10.0 mi SE 4.6 mph - N/A   Scattered Clouds
2:35 PM 86.0 °F 87.3 °F 64.4 °F 48% 30.05 in 10.0 mi NE 3.5 mph - N/A   Scattered Clouds
2:53 PM 89.1 °F 91.3 °F 66.0 °F 46% 30.04 in - Variable 3.5 mph - N/A   Unknown
2:55 PM 86.0 °F 87.3 °F 64.4 °F 48% 30.05 in 10.0 mi ESE 3.5 mph - N/A   Scattered Clouds
3:15 PM 86.0 °F 87.3 °F 64.4 °F 48% 30.04 in 10.0 mi ENE 3.5 mph - N/A   Scattered Clouds
3:35 PM 87.8 °F 89.4 °F 64.4 °F 46% 30.03 in 10.0 mi North 6.9 mph - N/A   Scattered Clouds
3:53 PM 91.0 °F 93.0 °F 64.9 °F 42% 30.01 in - Calm Calm - N/A   Unknown
3:55 PM 87.8 °F 88.5 °F 62.6 °F 43% 30.03 in 10.0 mi East 4.6 mph - N/A   Clear
4:15 PM 87.8 °F 88.5 °F 62.6 °F 43% 30.02 in 10.0 mi NNE 6.9 mph - N/A   Scattered Clouds
4:35 PM 87.8 °F 89.4 °F 64.4 °F 46% 30.02 in 10.0 mi NNE 6.9 mph - N/A   Clear
4:53 PM 91.0 °F 93.8 °F 66.0 °F 44% 30.01 in - North 5.8 mph - N/A   Unknown
4:55 PM 87.8 °F 88.5 °F 62.6 °F 43% 30.02 in 10.0 mi North 5.8 mph - N/A   Clear
5:15 PM 87.8 °F 89.4 °F 64.4 °F 46% 30.02 in 10.0 mi North 6.9 mph - N/A   Scattered Clouds
5:35 PM 87.8 °F 89.4 °F 64.4 °F 46% 30.02 in 10.0 mi North 9.2 mph - N/A   Scattered Clouds
5:53 PM 89.1 °F 92.1 °F 66.9 °F 48% 30.01 in - North 6.9 mph - N/A   Unknown
5:55 PM 87.8 °F 89.4 °F 64.4 °F 46% 30.02 in 10.0 mi North 4.6 mph - N/A   Clear
6:15 PM 86.0 °F 87.3 °F 64.4 °F 48% 30.02 in 10.0 mi NNE 4.6 mph - N/A   Clear
6:35 PM 86.0 °F 87.3 °F 64.4 °F 48% 30.02 in 10.0 mi North 6.9 mph - N/A   Clear
6:53 PM 87.1 °F 89.9 °F 66.9 °F 51% 30.01 in - Calm Calm - N/A   Unknown
6:55 PM 84.2 °F 85.6 °F 64.4 °F 51% 30.02 in 10.0 mi NNE 3.5 mph - N/A   Clear
7:15 PM 82.4 °F 84.6 °F 66.2 °F 58% 30.02 in 10.0 mi NNE 3.5 mph - N/A   Clear
7:35 PM 82.4 °F 85.4 °F 68.0 °F 62% 30.02 in 10.0 mi Calm Calm - N/A   Scattered Clouds
7:53 PM 82.0 °F 84.9 °F 68.0 °F 62% 30.01 in - NE 3.5 mph - N/A   Unknown
7:55 PM 80.6 °F 83.2 °F 68.0 °F 65% 30.02 in 10.0 mi NE 3.5 mph - N/A   Mostly Cloudy
8:15 PM 80.6 °F 83.2 °F 68.0 °F 65% 30.03 in 10.0 mi East 5.8 mph - N/A   Overcast
8:35 PM 80.6 °F 83.2 °F 68.0 °F 65% 30.03 in 10.0 mi ESE 6.9 mph - N/A   Scattered Clouds
8:53 PM 81.0 °F 84.1 °F 69.1 °F 67% 30.03 in - ESE 6.9 mph - N/A   Unknown
8:55 PM 78.8 °F - 68.0 °F 69% 30.05 in 10.0 mi ESE 8.1 mph - N/A   Mostly Cloudy
9:15 PM 78.8 °F - 69.8 °F 74% 30.05 in 10.0 mi Calm Calm - N/A   Scattered Clouds
9:35 PM 78.8 °F - 68.0 °F 69% 30.05 in 10.0 mi East 6.9 mph - N/A   Scattered Clouds
9:53 PM 79.0 °F - 68.0 °F 69% 30.05 in - East 4.6 mph - N/A   Unknown
9:55 PM 77.0 °F - 68.0 °F 74% 30.06 in 10.0 mi East 5.8 mph - N/A   Clear
10:15 PM 77.0 °F - 68.0 °F 74% 30.07 in 10.0 mi ESE 10.4 mph - N/A   Scattered Clouds
10:35 PM 77.0 °F - 68.0 °F 74% 30.07 in 10.0 mi ESE 8.1 mph - N/A   Scattered Clouds
10:53 PM 77.0 °F - 68.0 °F 74% 30.05 in - Variable 3.5 mph - N/A   Unknown
10:55 PM 75.2 °F - 68.0 °F 78% 30.07 in 10.0 mi ESE 6.9 mph - N/A   Clear
11:15 PM 73.4 °F - 68.0 °F 83% 30.07 in 10.0 mi ESE 4.6 mph - N/A   Clear
11:35 PM 73.4 °F - 68.0 °F 83% 30.07 in 10.0 mi East 4.6 mph - N/A   Scattered Clouds
11:53 PM 75.9 °F - 68.0 °F 76% 30.05 in - East 3.5 mph - N/A   Unknown
11:55 PM 73.4 °F - 68.0 °F 83% 30.06 in 10.0 mi East 4.6 mph - N/A   Scattered Clouds